This demonstration page uses our WeatherBlox Daily Observations layout. Learn more.

Left ArrowRight Arrow

Hourly Observations for June 5, 2021

Temp ( °F °C ) Dew Point ( °F °C ) Humidity (%) Winds ( mph kmh ) Pressure ( in mb ) Visibility ( mi km ) Precip ( " mm )
12:53 am 00:53 Clear 66 18.9 42 5.6 42 42 WSW 8 13 29.61 1003 10 16 N/A
1:53 am 01:53 Clear 65 18.3 42 5.6 43 43 SSW 12 19 29.62 1003 10 16 N/A
2:53 am 02:53 Clear 58 14.4 45 7.2 62 62 SW 13 20 29.63 1003 10 16 N/A
3:53 am 03:53 Clear 53 11.7 46 7.8 77 77 SW 12 19 29.62 1003 10 16 N/A
4:53 am 04:53 Clear 52 11.1 45 7.2 77 77 SW 8 13 29.63 1003 10 16 N/A
5:53 am 05:53 Sunny 52 11.1 45 7.2 77 77 SW 6 9 29.65 1004 10 16 N/A
6:53 am 06:53 Sunny 57 13.9 47 8.3 69 69 SW 9 15 29.65 1004 10 16 N/A
7:53 am 07:53 Sunny 65 18.3 47 8.3 52 52 SW 12 19 29.63 1004 10 16 N/A
8:53 am 08:53 Sunny 71 21.7 42 5.6 35 35 SSW 12 19 29.62 1003 10 16 N/A
9:53 am 09:53 Sunny 73 22.8 41 5 32 32 SW 7 11 29.62 1003 10 16 N/A
10:53 am 10:53 Sunny 77 25 41 5 28 28 WSW 18 30 29.58 1002 10 16 N/A
11:53 am 11:53 Sunny 79 26.1 36 2.2 21 21 WSW 17 28 29.56 1001 10 16 N/A
12:53 pm 12:53 Sunny 81 27.2 37 2.8 21 21 W 16 26 29.54 1000 10 16 N/A
1:53 pm 13:53 Sunny 82 27.8 37 2.8 20 20 WSW 12 19 29.52 1000 10 16 N/A
2:53 pm 14:53 Sunny 84 28.9 37 2.8 19 19 WSW 10 17 29.49 999 10 16 N/A
3:53 pm 15:53 Sunny 86 30 37 2.8 18 18 W 20 31 29.45 997 10 16 N/A
4:53 pm 16:53 Sunny 84 28.9 33 0.6 16 16 NW 18 30 29.46 998 10 16 N/A
5:53 pm 17:53 Sunny 81 27.2 30 -1.1 16 16 NW 23 37 29.48 998 10 16 N/A
6:53 pm 18:53 Sunny 75 23.9 29 -1.7 18 18 WNW 21 33 29.52 1000 10 16 N/A
7:53 pm 19:53 Sunny 72 22.2 28 -2.2 19 19 WNW 21 33 29.54 1000 10 16 N/A
8:53 pm 20:53 Sunny 70 21.1 29 -1.7 22 22 WNW 22 35 29.56 1001 10 16 N/A
9:53 pm 21:53 Clear 68 20 27 -2.8 21 21 W 18 30 29.60 1002 10 16 N/A
10:53 pm 22:53 Clear 65 18.3 32 undefined 29 29 WNW 15 24 29.62 1003 10 16 N/A
11:53 pm 23:53 Clear 61 16.1 34 1.1 36 36 NW 23 37 29.62 1003 10 16 N/A

Powered by AerisWeather